SL-12 R/B(2)

基本信息
目录编号:
29233
目录名称:
SL-12 R/B(2)
国际标识:
2006-022D
轨道中心:
EARTH
物体状态:
在轨
发射日期:
2006-06-17 UTC
国别:
俄罗斯(独联体) (CIS)
轨道信息
数据来源: 国际轨道数据
星历时间: 2026-07-13T23:25:08+0800
半长轴: 41958.325km
偏心率: 0.0051716
轨道倾角: 12.543°
近地点辐角: 42.775°
升交点赤经: 22.296°
平近点角: 149.134°
近地点: 35363.196km
远地点: 35797.18km
周期: 1425.565分钟
每日圈数: 1.010126
详细信息
发射场:
TTMTR
轨道高度:
MEO
数据来源:
AOE Integration Group
参考系:
TEME
时间系统:
UTC
历元类型:
SGP4
2D轨道图
3D轨道图
轨道高度分析图
轨道倾角分析图
轨道综合分析图
查看轨道综合分析图